| time (UTC) | temp F | wind direction | speed MPH | gust MPH | rain 1hr in | rain 24hr in | rain mn in | humidity % | barometer mb |
| 20260831164123 | 95 | 126 | 6.0 | 13.0 | 0.00 | 0.00 | 0.00 | 61 | 1013.2 |
| 20260831162621 | 94 | 65 | 5.0 | 12.0 | 0.00 | 0.00 | 0.00 | 63 | 1013.3 |
| 20260831161136 | 93 | 121 | 6.0 | 10.0 | 0.00 | 0.00 | 0.00 | 65 | 1013.4 |
| 20260831155627 | 92 | 159 | 6.0 | 13.0 | 0.00 | 0.00 | 0.00 | 68 | 1013.1 |
| 20260831154142 | 92 | 149 | 5.0 | 10.0 | 0.00 | 0.00 | 0.00 | 69 | 1013.2 |
| 20260831152635 | 90 | 178 | 5.0 | 12.0 | 0.00 | 0.00 | 0.00 | 71 | 1013.2 |
| 20260831151125 | 90 | 167 | 6.0 | 12.0 | 0.00 | 0.00 | 0.00 | 74 | 1013.4 |
| 20260831145623 | 88 | 122 | 5.0 | 12.0 | 0.00 | 0.00 | 0.00 | 77 | 1013.3 |
| 20260831144120 | 88 | 159 | 5.0 | 11.0 | 0.00 | 0.00 | 0.00 | 80 | 1013.1 |
| 20260831142619 | 87 | 172 | 7.0 | 14.0 | 0.00 | 0.00 | 0.00 | 82 | 1013.1 |
| 20260831141133 | 86 | 147 | 5.0 | 10.0 | 0.00 | 0.00 | 0.00 | 86 | 1013.1 |
| 20260831135646 | 85 | 142 | 3.0 | 8.0 | 0.00 | 0.00 | 0.00 | 89 | 1013.2 |
| 20260831134141 | 83 | 177 | 3.0 | 7.0 | 0.00 | 0.00 | 0.00 | 92 | 1013.1 |
| 20260831132620 | 81 | 127 | 2.0 | 6.0 | 0.00 | 0.00 | 0.00 | 96 | 1012.9 |
| 20260831131117 | 80 | 126 | 1.0 | 4.0 | 0.00 | 0.00 | 0.00 | 98 | 1012.8 |
| 20260831125619 | 79 | 130 | 0.0 | 0.0 | 0.00 | 0.00 | 0.00 | 98 | 1012.8 |
| 20260831124139 | 78 | 130 | 0.0 | 0.0 | 0.00 | 0.00 | 0.00 | 98 | 1012.7 |
| 20260831122658 | 78 | 130 | 0.0 | 0.0 | 0.00 | 0.00 | 0.00 | 97 | 1012.3 |
| 20260831121126 | 78 | 130 | 0.0 | 0.0 | 0.00 | 0.00 | 0.00 | 97 | 1012.1 |
| 20260831115622 | 78 | 130 | 0.0 | 1.0 | 0.00 | 0.00 | 0.00 | 97 | 1012.0 |
| 20260831114123 | 77 | 130 | 0.0 | 0.0 | 0.00 | 0.00 | 0.00 | 97 | 1012.0 |
| 20260831112642 | 77 | 130 | 0.0 | 0.0 | 0.00 | 0.00 | 0.00 | 97 | 1011.9 |
| 20260831111134 | 78 | 130 | 0.0 | 0.0 | 0.00 | 0.00 | 0.00 | 97 | 1011.7 |
| 20260831105625 | 78 | 130 | 0.0 | 0.0 | 0.00 | 0.00 | 0.00 | 96 | 1011.8 |
| 20260831104124 | 78 | 130 | 0.0 | 0.0 | 0.00 | 0.00 | 0.00 | 96 | 1011.6 |
| 20260831102621 | 78 | 130 | 0.0 | 0.0 | 0.00 | 0.00 | 0.00 | 96 | 1011.9 |
| 20260831101139 | 78 | 130 | 0.0 | 0.0 | 0.00 | 0.00 | 0.00 | 95 | 1011.8 |
| 20260831095619 | 79 | 130 | 0.0 | 0.0 | 0.00 | 0.00 | 0.00 | 95 | 1011.8 |
| 20260831094117 | 79 | 130 | 0.0 | 0.0 | 0.00 | 0.00 | 0.00 | 94 | 1011.8 |
| 20260831092631 | 79 | 130 | 1.0 | 3.0 | 0.00 | 0.00 | 0.00 | 94 | 1011.8 |
| 20260831091125 | 80 | 130 | 0.0 | 0.0 | 0.00 | 0.00 | 0.00 | 93 | 1011.9 |
| 20260831085623 | 81 | 130 | 0.0 | 1.0 | 0.00 | 0.00 | 0.00 | 92 | 1012.0 |
| 20260831084122 | 81 | 130 | 0.0 | 1.0 | 0.00 | 0.00 | 0.00 | 92 | 1012.0 |
| 20260831082645 | 81 | 129 | 1.0 | 4.0 | 0.00 | 0.00 | 0.00 | 92 | 1012.0 |
| 20260831081143 | 81 | 125 | 1.0 | 6.0 | 0.00 | 0.00 | 0.00 | 92 | 1012.1 |
| 20260831075622 | 82 | 153 | 2.0 | 7.0 | 0.00 | 0.00 | 0.00 | 91 | 1012.0 |
| 20260831074140 | 82 | 152 | 4.0 | 7.0 | 0.00 | 0.00 | 0.00 | 91 | 1012.2 |
| 20260831072655 | 82 | 136 | 3.0 | 8.0 | 0.00 | 0.00 | 0.00 | 91 | 1012.2 |
| 20260831071124 | 82 | 140 | 2.0 | 5.0 | 0.00 | 0.00 | 0.00 | 90 | 1012.6 |
| 20260831065623 | 82 | 141 | 2.0 | 6.0 | 0.00 | 0.00 | 0.00 | 90 | 1012.5 |
| 20260831064120 | 82 | 164 | 3.0 | 6.0 | 0.00 | 0.00 | 0.00 | 89 | 1012.8 |
| 20260831062621 | 82 | 140 | 2.0 | 6.0 | 0.00 | 0.00 | 0.00 | 89 | 1012.8 |
| 20260831061119 | 82 | 149 | 2.0 | 5.0 | 0.00 | 0.00 | 0.00 | 89 | 1012.8 |
| 20260831055619 | 83 | 150 | 3.0 | 6.0 | 0.00 | 0.00 | 0.00 | 88 | 1012.9 |
| 20260831054118 | 83 | 157 | 4.0 | 7.0 | 0.00 | 0.00 | 0.00 | 88 | 1012.9 |
| 20260831052618 | 83 | 151 | 4.0 | 7.0 | 0.00 | 0.00 | 0.00 | 89 | 1012.9 |
| 20260831051136 | 83 | 142 | 3.0 | 7.0 | 0.00 | 0.00 | 0.00 | 89 | 1012.9 |
| 20260831045625 | 83 | 150 | 4.0 | 7.0 | 0.00 | 0.00 | 0.00 | 89 | 1012.9 |
| 20260831044123 | 83 | 142 | 4.0 | 8.0 | 0.00 | 0.00 | 0.00 | 89 | 1013.0 |
| 20260831042624 | 83 | 134 | 4.0 | 9.0 | 0.00 | 0.00 | 0.00 | 88 | 1013.0 |
| 20260831041142 | 84 | 150 | 3.0 | 9.0 | 0.00 | 0.00 | 0.00 | 88 | 1012.9 |
| 20260831035643 | 84 | 132 | 5.0 | 9.0 | 0.00 | 0.00 | 0.00 | 88 | 1012.8 |
| 20260831034117 | 84 | 119 | 4.0 | 9.0 | 0.00 | 0.00 | 0.00 | 89 | 1012.5 |
| 20260831032638 | 84 | 164 | 5.0 | 12.0 | 0.00 | 0.00 | 0.00 | 88 | 1012.3 |
| 20260831031116 | 84 | 128 | 4.0 | 10.0 | 0.00 | 0.00 | 0.00 | 88 | 1012.3 |
| 20260831025617 | 84 | 113 | 4.0 | 9.0 | 0.00 | 0.00 | 0.00 | 88 | 1012.2 |
| 20260831024116 | 84 | 136 | 4.0 | 10.0 | 0.00 | 0.00 | 0.00 | 87 | 1011.9 |
| 20260831022618 | 85 | 128 | 3.0 | 9.0 | 0.00 | 0.00 | 0.00 | 87 | 1011.9 |
| 20260831021154 | 85 | 144 | 4.0 | 10.0 | 0.00 | 0.00 | 0.00 | 86 | 1011.6 |
| 20260831015621 | 85 | 115 | 4.0 | 12.0 | 0.00 | 0.00 | 0.00 | 86 | 1011.4 |
| 20260831014120 | 85 | 149 | 5.0 | 12.0 | 0.00 | 0.00 | 0.00 | 85 | 1011.2 |
| 20260831012622 | 86 | 128 | 3.0 | 12.0 | 0.00 | 0.00 | 0.00 | 83 | 1011.1 |
| 20260831011118 | 86 | 164 | 6.0 | 14.0 | 0.00 | 0.00 | 0.00 | 83 | 1010.9 |
| 20260831005621 | 86 | 90 | 7.0 | 14.0 | 0.00 | 0.00 | 0.00 | 81 | 1010.8 |
| 20260831004133 | 87 | 80 | 7.0 | 15.0 | 0.00 | 0.00 | 0.00 | 80 | 1010.8 |
| 20260831002642 | 87 | 86 | 9.0 | 18.0 | 0.00 | 0.00 | 0.00 | 79 | 1010.7 |
| 20260830234141 | 90 | 93 | 8.0 | 18.0 | 0.00 | 0.00 | 0.00 | 73 | 1010.4 |
| 20260830232618 | 91 | 92 | 7.0 | 17.0 | 0.00 | 0.00 | 0.00 | 71 | 1010.5 |
| 20260830231123 | 91 | 128 | 8.0 | 16.0 | 0.00 | 0.00 | 0.00 | 70 | 1010.4 |
| 20260830225623 | 92 | 74 | 8.0 | 16.0 | 0.00 | 0.00 | 0.00 | 68 | 1010.4 |
| 20260830224122 | 92 | 93 | 8.0 | 15.0 | 0.00 | 0.00 | 0.00 | 66 | 1010.3 |
| 20260830222638 | 93 | 134 | 10.0 | 19.0 | 0.00 | 0.00 | 0.00 | 66 | 1010.3 |
| 20260830221118 | 93 | 57 | 9.0 | 16.0 | 0.00 | 0.00 | 0.00 | 65 | 1010.3 |
| 20260830215624 | 94 | 146 | 9.0 | 17.0 | 0.00 | 0.00 | 0.00 | 65 | 1010.4 |
| 20260830214124 | 95 | 134 | 10.0 | 18.0 | 0.00 | 0.00 | 0.00 | 64 | 1010.2 |
| 20260830212625 | 95 | 148 | 9.0 | 17.0 | 0.00 | 0.00 | 0.00 | 64 | 1010.4 |
| 20260830211127 | 95 | 113 | 8.0 | 23.0 | 0.00 | 0.00 | 0.00 | 65 | 1010.4 |
| 20260830205627 | 95 | 112 | 8.0 | 16.0 | 0.00 | 0.00 | 0.00 | 65 | 1010.8 |
| 20260830204124 | 93 | 81 | 6.0 | 13.0 | 0.00 | 0.00 | 0.00 | 69 | 1011.1 |
| 20260830202624 | 90 | 116 | 4.0 | 9.0 | 0.00 | 0.00 | 0.00 | 76 | 1011.4 |
| 20260830201120 | 89 | 114 | 5.0 | 10.0 | 0.00 | 0.00 | 0.00 | 77 | 1011.7 |
| 20260830195644 | 90 | 138 | 6.0 | 13.0 | 0.00 | 0.00 | 0.00 | 76 | 1012.1 |